This is the latest recevied weather packets stored in our database for station/object N3DOU-1. If no packets are shown the sender has not sent any weather packets the latest 10 day(s).
| Time | Temp. | Humidity | Pressure | Rain* | Wind** | Luminosity | Snow |
|---|---|---|---|---|---|---|---|
| 1778265685 | 21.67° C | 39% | 1012.8 hPa | 0 mm | - | - | - |
| 1778264785 | 21.11° C | 36% | 1012.6 hPa | 0 mm | - | - | - |
| 1778263884 | 21.11° C | 38% | 1012.8 hPa | 0 mm | - | - | - |
| 1778262987 | 21.11° C | 36% | 1013 hPa | 0 mm | - | - | - |
| 1778262084 | 20.56° C | 39% | 1013.1 hPa | 0 mm | - | - | - |
| 1778259388 | 20° C | 42% | 1013.5 hPa | 0 mm | - | - | - |
| 1778258484 | 20° C | 38% | 1013.6 hPa | 0 mm | - | - | - |
| 1778257586 | 19.44° C | 41% | 1013.8 hPa | 0 mm | - | - | - |
| 1778256684 | 19.44° C | 39% | 1014.1 hPa | 0 mm | - | - | - |
| 1778255785 | 18.89° C | 42% | 1014.4 hPa | 0 mm | - | - | - |
| 1778253985 | 18.33° C | 36% | 1014.7 hPa | 0 mm | - | - | - |
| 1778253085 | 17.78° C | 40% | 1014.8 hPa | 0 mm | - | - | - |
| 1778252184 | 17.22° C | 40% | 1014.8 hPa | 0 mm | - | - | - |
| 1778251285 | 16.67° C | 41% | 1014.9 hPa | 0 mm | - | - | - |
| 1778250384 | 16.67° C | 40% | 1015 hPa | 0 mm | - | - | - |
| 1778249486 | 16.11° C | 43% | 1015 hPa | 0 mm | - | - | - |
| 1778248585 | 16.11° C | 45% | 1015.1 hPa | 0 mm | - | - | - |
| 1778247684 | 15.56° C | 48% | 1015.1 hPa | 0 mm | - | - | - |
| 1778246785 | 15° C | 47% | 1015.3 hPa | 0 mm | - | - | - |
| 1778244985 | 15° C | 58% | 1015.4 hPa | 0 mm | - | - | - |
| 1778244084 | 14.44° C | 61% | 1015.3 hPa | 0 mm | - | - | - |
| 1778243186 | 13.89° C | 60% | 1015.3 hPa | 0 mm | - | - | - |
| 1778242284 | 13.33° C | 59% | 1015.2 hPa | 0 mm | - | - | - |
| 1778240485 | 12.22° C | 68% | 1015.1 hPa | 0 mm | - | - | - |
| 1778239584 | 11.11° C | 70% | 1014.8 hPa | 0 mm | - | - | - |
* Rain latest hour (hover to see other rain measurements)
** Current wind speed in m/s (hover to see current wind gust speed)